Home > Weather > Langesund > Past weeks

Flag for Norway Past Weather in Langesund, Norway — Yesterday and Last 2 Weeks

Now
66 °F

Mild.


Feels Like: 66 °F
Forecast: 53 / 70 °F
Wind: 9 mph from Southwest

Location: Jomfruland Fyr

Current Time: Aug 26, 2016 at 8:45:11 PM

Latest Report: Aug 26, 2016 at 8:00 PM


Visibility: N/A

Pressure: 29.81 "Hg

Humidity: 72%

Dew Point: 57 °F

Location of LangesundLocation

Past Weather in Langesund — Graph

°F

Langesund Temperature Yesterday

Maximum temperature yesterday: 64 °F (at 1:00 PM)
Minimum temperature yesterday: 61 °F (at 1:00 AM)
Average temperature yesterday: 63 °F

High & Low Weather Summary for the Past Weeks

 TemperatureHumidityPressure
High71 °F (Aug 17, 1:00 PM)97% (Aug 26, 12:00 AM)30.26 "Hg (Aug 26, 12:00 AM)
Low51 °F (Aug 12, 5:00 AM)42% (Aug 17, 1:00 PM)29.65 "Hg (Aug 12, 11:00 PM)
Average62 °F80%29.98 "Hg
* Reported Aug 11 7:00 PM — Aug 26 6:00 PM, Langesund, Weather by CustomWeather, © 2016

Note: Actual official high and low records may vary slightly from our data, if they occured in-between our weather recording intervals... More about our weather records

Advertising

Langesund Weather History for the Previous 24 Hours

Scroll right to see more
 ConditionsComfort  
Time TempWeatherWind HumidityBarometerVisibility
6:00 PM
Fri, Aug 26
71 °FMild.10 mph53%29.77 "HgN/A
5:00 PM69 °FMild.13 mph67%29.74 "HgN/A
4:00 PM66 °FMild.14 mph89%29.71 "HgN/A
3:00 PM67 °FMild.10 mph89%29.71 "HgN/A
2:00 PM66 °FMild.9 mph88%29.72 "HgN/A
1:00 PM65 °FMild.5 mph90%29.74 "HgN/A
12:00 PM65 °FMild.2 mph88%29.77 "HgN/A
11:00 AM67 °FMild.3 mph89%29.78 "HgN/A
10:00 AM65 °FMild.5 mph92%29.81 "HgN/A
9:00 AM64 °FMild.5 mph94%29.83 "HgN/A
8:00 AM64 °FMild.6 mph95%29.85 "HgN/A
7:00 AM63 °FMild.5 mph96%29.88 "HgN/A
6:00 AM63 °FMild.5 mph96%29.89 "HgN/A
5:00 AM63 °FMild.2 mph96%29.91 "HgN/A
4:00 AM63 °FMild.5 mph96%29.93 "HgN/A
3:00 AM63 °FMild.5 mph96%29.96 "HgN/A
2:00 AM63 °FMild.2 mph96%29.99 "HgN/A
1:00 AM62 °FMild.2 mph96%29.99 "HgN/A
12:00 AM62 °FCool.2 mph97%29.99 "HgN/A
11:00 PM
Thu, Aug 25
63 °FMild.2 mph95%30.01 "HgN/A
10:00 PM63 °FMild.1 mph95%30.02 "HgN/A
9:00 PM63 °FMild.No wind95%30.02 "HgN/A
8:00 PM63 °FMild.1 mph95%30.02 "HgN/A
Weather by CustomWeather, © 2016

See weather overviewHow to use our weather pages